#timestamp,LO_Frequency,Hit,StdDev 
1513148415.9,286046985.1,N
1513148435.7,286046979.9,Y
1513148455.5,286046994.6,P
1513148475.4,286046991.9,N
1513148495.2,286047000.4,N
1513148515.1,286046999.7,N
1513148516.0,286046999.7,N
1513148535.8,286047001.5,N
1513148555.6,286047002.8,N
1513148575.5,286047004.1,N
1513148595.3,286047005.6,N
1513148615.1,286047007.6,N
1513148635.9,286047008.9,N
1513148655.7,286047007.4,N
1513148675.6,286047012.1,N
1513148695.4,286047012.6,N
1513148715.2,286047012.5,N
1513148735.1,286047014.5,N
1513148736.0,286047014.5,N
1513148755.8,286047014.4,N
1513148775.7,286047017.1,N
1513148795.5,286047022.0,N
1513148815.3,286047020.0,N
1513148835.2,286047016.3,N
1513148855.0,286047018.4,N
1513148855.9,286047018.4,N
1513148875.8,286047017.5,N
1513148895.6,286047016.7,N
1513148915.4,286047017.4,N
1513148935.3,286047018.4,N
1513148955.1,286047018.5,N
1513148975.8,286047017.5,N
1513148995.7,286047014.4,N
1513149015.5,286047013.1,N
1513149035.4,286047013.6,N
1513149055.2,286047013.1,N
1513149075.0,286047015.0,N
1513149075.9,286047015.0,N
1513149095.8,286047018.8,Y
1513149115.6,286047002.9,P
1513149135.5,286047008.9,N
1513149155.3,286047008.7,N
1513149175.1,286047008.9,N
1513149195.9,286047008.4,N
1513149215.7,286047014.0,Y
1513149235.6,286047003.5,P
1513149255.4,286046997.7,N
1513149275.2,286046993.0,N
1513149295.1,286046996.9,N
1513149296.0,286046996.9,N
1513149315.8,286046998.8,N
1513149335.6,286046997.6,N
1513149355.5,286046995.4,N
1513149375.3,286046995.2,N
1513149395.2,286046996.3,N
1513149415.9,286046989.3,N
1513149435.7,286046994.8,N
1513149455.6,286046995.3,N
1513149475.4,286046993.6,N
1513149495.2,286046994.2,N
1513149515.1,286046990.2,N
1513149516.0,286046990.2,N
1513149535.8,286046993.7,N
1513149555.7,286046993.3,N
1513149575.5,286046994.7,N
1513149595.3,286046990.4,N
1513149615.2,286046992.8,N
1513149635.0,286046990.3,N
1513149635.9,286046990.3,N
1513149655.8,286046985.4,Y
1513149675.6,286046994.1,P
1513149695.4,286046992.6,P
1513149715.3,286046989.5,P
1513149735.1,286046986.1,Y
1513149755.9,286046999.1,P
1513149775.7,286047002.9,N
1513149795.5,286047007.6,N
1513149815.4,286047003.4,N
1513149835.2,286047001.6,N
1513149855.0,286047003.9,N
1513149855.9,286047003.9,N
1513149875.8,286047001.6,N
1513149895.6,286047005.6,N
1513149915.5,286047009.2,N
1513149935.3,286047006.2,N
1513149955.1,286047004.0,N
1513149975.9,286047004.1,N
1513149995.7,286047003.6,N
1513150015.6,286047001.9,N
1513150035.4,286047001.3,N
1513150055.2,286047003.3,N
1513150075.1,286047002.4,N
1513150076.0,286047002.4,N
1513150095.8,286047003.3,N
1513150115.6,286047004.8,N
1513150135.5,286047002.8,N
1513150155.3,286047007.1,N
1513150175.2,286047007.1,N
1513150195.9,286047005.2,N
1513150215.7,286047008.5,N
1513150235.6,286047006.3,N
1513150255.4,286047001.5,N
1513150275.3,286047005.2,N
1513150295.1,286047008.4,N
1513150296.0,286047008.4,Y
1513150315.8,286047002.3,P
1513150335.7,286047003.5,P
1513150355.5,286047005.2,P
1513150375.3,286047001.5,N
1513150395.2,286047009.2,Y
1513150415.0,286047009.2,P
1513150415.9,286047009.2,P
1513150435.8,286047005.8,N
1513150455.6,286047003.1,N
1513150475.4,286047001.7,N
1513150495.3,286047004.7,N
1513150515.1,286047004.6,N
1513150535.9,286047001.8,N
1513150555.7,286047002.2,N
1513150575.5,286047002.3,N
1513150595.4,286047002.6,N
1513150615.2,286046994.1,N
1513150635.1,286046980.8,Y
1513150636.0,286046980.8,P
1513150655.8,286046974.2,N
1513150675.6,286046974.7,N
1513150695.5,286046977.6,N
1513150715.3,286046984.2,N
1513150735.1,286046985.8,N
1513150755.9,286046989.9,N
1513150775.7,286046986.3,N
1513150795.6,286046991.0,N
1513150815.4,286046991.9,N
1513150835.2,286046993.1,N
1513150855.1,286046988.6,N
1513150856.0,286046988.6,N
1513150875.8,286046988.3,N
1513150895.7,286046987.8,N
1513150915.5,286046989.0,N
1513150935.3,286046991.2,N
1513150955.2,286046990.8,N
1513150975.0,286046994.0,N
1513150975.9,286046994.0,N
1513150995.8,286046992.0,N
1513151015.6,286046996.1,N
1513151035.4,286046993.7,N
1513151055.3,286046996.0,N
1513151075.1,286046995.6,N
1513151095.8,286046998.8,N
1513151145.7,286046970.5,E
1513151155.6,286046973.1,N
1513151175.5,286046977.2,P
1513151195.3,286046973.7,P
1513151215.2,286046977.9,Y
1513151235.9,286047006.2,P
1513151255.7,286047012.5,N
1513151275.6,286047017.3,N
1513151295.4,286047024.4,N
1513151315.2,286047026.4,N
1513151335.1,286047027.0,N
1513151336.0,286047027.0,N
1513151355.8,286047022.7,N
1513151375.7,286047010.4,N
1513151395.5,286046997.6,N
1513151415.3,286046990.8,N
1513151435.2,286046986.4,N
1513151455.0,286046981.1,N
1513151455.9,286046986.3,N
1513151475.8,286046977.0,N
1513151495.6,286046972.3,N
1513151515.4,286046966.1,N
1513151535.3,286046965.6,N
1513151555.1,286046962.8,N
1513151575.8,286046956.8,N
1513151595.7,286046955.2,N
1513151615.5,286046958.2,N
1513151635.4,286046953.4,N
1513151655.2,286046951.2,N
1513151675.0,286046954.2,N
1513151675.9,286046954.2,N
1513151695.8,286046964.8,N
1513151715.6,286046972.1,N
1513151735.5,286046978.2,N
1513151755.3,286046979.5,N
1513151775.1,286046971.5,N
1513151795.9,286046965.1,N
1513151815.7,286046957.0,N
1513151835.5,286046950.5,N
1513151855.4,286046947.7,N
1513151875.2,286046946.7,N
1513151895.1,286046943.3,N
1513151896.0,286046943.3,Y
1513151915.8,286046974.0,P
1513151935.6,286046970.5,P
1513151955.5,286046970.0,P
1513151975.3,286046970.8,Y
1513151995.2,286046999.5,P
